Regional Weather Roundup
Issued by NWS

Home | Current Version | Previous Version | Text Only | Print | Product List | Glossary Off
Versions: 1 2 3 4 5 6 7 8 9 10 11 12 13 14 15 16 17 18 19 20 21 22 23 24 25 26 27 28 29 30 31 32 33 34 35 36 37 38 39 40 41 42 43 44 45 46 47 48 49 50

000
ASUS43 KIND 042009
RWRIN

WEATHER ROUNDUP FOR INDIANA
NATIONAL WEATHER SERVICE INDIANAPOLIS IN
400 PM EDT FRI SEP 04 2015

NOTE: "FAIR" INDICATES FEW OR NO CLOUDS BELOW 12,000 FEET WITH NO
SIGNIFICANT WEATHER AND/OR OBSTRUCTIONS TO VISIBILITY.

* - STATION DOES NOT REPORT WEATHER SUCH AS PRECIPITATION OR FOG.

+ - STATION NOT QUALITY CONTROLLED BY THE NATIONAL WEATHER SERVICE.
    USE DATA WITH CAUTION...ESPECIALLY DEWPOINT AND RELATIVE
    HUMIDITY OBSERVATIONS.

INZ001>003-010>013-019-020-042100-
NORTHWEST INDIANA

CITY           SKY/WX    TMP DP  RH WIND       PRES   REMARKS
GARY /AIRPORT/ PTSUNNY   77  68  73 NE6       30.03R
KNOX *+        CLOUDY    72  68  88 CALM      30.01F
LA PORTE +     CLOUDY    81  75  82 NW7       30.02F
MICHIGAN CITY+ MOSUNNY   75  70  83 N6        30.03S
MONTICELLO +   LGT RAIN  77  71  82 E8        30.00S
RENSSELAER +   MOSUNNY   82  73  74 NE8       29.99F THUNDER
VALPARAISO     PTSUNNY   82  72  71 NE5       30.01F

$$

LMZ046-743>745-042100-
SOUTHERN LAKE MICHIGAN

STATION/POSITION TIME  TEMP    WIND        PRES    WAVE
                       AIR SEA DIR/SP/G            HT
                 (UTC) (F)     (DEG/KT/KT) (MB)    (FT)
BURNS HARBOR     1900   74      50/  9/ 10 1017.3F
MICHIGAN CITY    1900   71     360/  7/  9   N/A
5NW MICH CITY    2000   71 74   40/  8/ 10   N/A     1

$$

INZ004-005-014>016-021>024-042100-
NORTH CENTRAL INDIANA

CITY           SKY/WX    TMP DP  RH WIND       PRES   REMARKS
ELKHART        CLOUDY    82  72  69 NW6       30.02S
GOSHEN         PTSUNNY   83  72  69 NW6       30.00F
LOGANSPORT +   PTSUNNY   73  57  56 N16G22    30.06R
PERU/GRISSOM   PTSUNNY   81  65  58 N25G40    30.03R
ROCHESTER +    TSTM      70  63  78 SW10      30.02R
SOUTH BEND     PTSUNNY   80  70  71 NW9       30.02S
WARSAW +       LGT RAIN  73  70  88 NE3       30.01S

$$

INZ006>009-017-018-025>027-042100-
NORTHEAST INDIANA

CITY           SKY/WX    TMP DP  RH WIND       PRES   REMARKS
ANGOLA *+      SUNNY     81  73  78 CALM      30.02F
AUBURN +       CLOUDY    79  70  73 NE5       30.03S
FORT WAYNE     PTSUNNY   82  72  71 NE12      30.00F
HUNTINGTON +   PTSUNNY   89  67  48 E8        29.97F THUNDER

$$

INZ028-029-035-036-043>045-051>053-042100-
WEST CENTRAL INDIANA

CITY           SKY/WX    TMP DP  RH WIND       PRES   REMARKS
CRAWFORDSVL +  MOSUNNY   89  61  38 W6        30.00F
GREENCASTLE +  PTSUNNY   90  63  40 CALM      30.02F
LAFAYETTE      MOSUNNY   92  65  40 W9G20     29.97F
TERRE HAUTE    PTSUNNY   93  66  40 SW10      30.00F HX  96

$$

INZ030>032-037>040-046>048-054>057-064-065-042100-
CENTRAL INDIANA

CITY           SKY/WX    TMP DP  RH WIND       PRES   REMARKS
ANDERSON       MOSUNNY   91  55  29 SW6       30.03F
COLUMBUS       MOSUNNY   90  64  43 W5        30.01F
FISHERS *+     MOSUNNY   84  72  65 NW5       30.00F
FRANKFORT +    MOSUNNY   94  67  41 SW8       30.03S HX  98
GREENWOOD *+   SUNNY     91  63  38 SW7       30.02F
INDIANAPOLIS   MOSUNNY   91  65  41 SW10G18   30.00F
-EAGLE CREEK   SUNNY     89  65  44 SW6       30.00F
KOKOMO *+      PTSUNNY   91  66  43 W16       30.01R
MARION +       MOSUNNY   90  52  26 W7        30.00F
MT COMFORT *+  SUNNY     90  48  24 W7        30.01F
SHELBYVILLE    SUNNY     94  66  39 W6        30.00F HX  97
ZIONSVILLE +   SUNNY     92  65  40 W6        30.02F

$$

INZ033-034-041-042-049-050-058-059-042100-
EAST CENTRAL INDIANA

CITY           SKY/WX    TMP DP  RH WIND       PRES   REMARKS
MUNCIE         MOSUNNY   90  67  46 W12       30.00F

$$

INZ060-061-067>069-081>083-085>088-042100-
SOUTHWEST INDIANA

CITY           SKY/WX    TMP DP  RH WIND       PRES   REMARKS
EVANSVILLE     SUNNY     93  64  38 SE5       30.01F
HUNTINGBURG *+ MOSUNNY   93  66  40 CALM      30.02F HX  96
WASHINGTON +   SUNNY     93  55  27 S3        30.00F

$$

INZ062-063-066-070>080-084-089>092-042100-
SOUTH CENTRAL AND SOUTHEAST INDIANA

CITY           SKY/WX    TMP DP  RH WIND       PRES   REMARKS
BLOOMINGTON    SUNNY     91  66  43 MISG      30.03F
MADISON *+     MOSUNNY   91  61  35 CALM      30.04F
NORTH VERNON + MOSUNNY   93  63  36 CALM      30.03F
SEYMOUR +      SUNNY     97  66  36 W6        30.01F HX 100

$$




USA.gov is the U.S. government's official web portal to all federal, state and local government web resources and services.